TimeCST,TemperatureF,Dew PointF,Humidity,Sea Level PressureIn,VisibilityMPH,Wind Direction,Wind SpeedMPH,Gust SpeedMPH,PrecipitationIn,Events,Conditions,WindDirDegrees,DateUTC
12:15 AM,10.0,0.9,66,29.86,10.0,SW,3.5,-,N/A,,Mostly Cloudy,230,2014-01-26 06:15:00
12:35 AM,10.4,0.5,64,29.83,10.0,SSW,3.5,-,N/A,,Overcast,210,2014-01-26 06:35:00
12:55 AM,11.1,1.6,66,29.83,10.0,SW,5.8,-,N/A,,Overcast,220,2014-01-26 06:55:00
1:15 AM,11.7,1.9,65,29.80,10.0,South,5.8,-,N/A,,Overcast,180,2014-01-26 07:15:00
1:35 AM,12.0,2.1,65,29.80,10.0,South,4.6,-,N/A,,Overcast,180,2014-01-26 07:35:00
1:55 AM,11.3,3.6,71,29.78,10.0,South,8.1,-,N/A,,Overcast,180,2014-01-26 07:55:00
2:15 AM,11.7,3.7,71,29.74,10.0,SSE,9.2,-,N/A,,Overcast,160,2014-01-26 08:15:00
2:35 AM,12.2,3.6,68,29.72,10.0,SSE,10.4,-,N/A,,Overcast,160,2014-01-26 08:35:00
2:55 AM,12.7,3.6,67,29.72,10.0,South,8.1,-,N/A,,Overcast,170,2014-01-26 08:55:00
3:15 AM,13.1,3.6,66,29.70,10.0,SSE,6.9,-,N/A,,Overcast,160,2014-01-26 09:15:00
3:35 AM,13.1,4.8,70,29.66,10.0,SSE,9.2,-,N/A,,Overcast,160,2014-01-26 09:35:00
3:55 AM,13.8,4.6,67,29.64,10.0,SSE,8.1,-,N/A,,Overcast,160,2014-01-26 09:55:00
4:15 AM,14.0,4.1,65,29.61,10.0,SSE,12.7,-,N/A,,Overcast,160,2014-01-26 10:15:00
4:35 AM,14.5,4.1,63,29.58,10.0,South,13.8,-,N/A,,Overcast,170,2014-01-26 10:35:00
4:55 AM,14.9,3.0,59,29.56,10.0,SSE,12.7,20.7,N/A,,Overcast,160,2014-01-26 10:55:00
5:15 AM,15.3,3.6,60,29.58,10.0,SE,6.9,-,N/A,,Overcast,140,2014-01-26 11:15:00
5:35 AM,15.8,4.1,60,29.56,10.0,SSE,10.4,19.6,N/A,Snow,Light Snow,160,2014-01-26 11:35:00
5:55 AM,16.5,4.8,60,29.56,10.0,South,15.0,19.6,N/A,,Overcast,180,2014-01-26 11:55:00
6:15 AM,17.2,4.6,58,29.55,10.0,South,15.0,-,N/A,,Overcast,180,2014-01-26 12:15:00
6:35 AM,17.6,6.4,62,29.55,10.0,South,15.0,-,N/A,Snow,Light Snow,180,2014-01-26 12:35:00
6:55 AM,18.1,7.7,64,29.54,10.0,South,13.8,-,N/A,,Overcast,180,2014-01-26 12:55:00
7:15 AM,18.9,9.0,65,29.54,10.0,South,16.1,-,N/A,Snow,Light Snow,190,2014-01-26 13:15:00
7:35 AM,19.9,10.8,68,29.52,4.0,South,19.6,23.0,N/A,Snow,Light Snow,180,2014-01-26 13:35:00
7:55 AM,21.2,12.6,69,29.51,10.0,South,17.3,25.3,N/A,,Overcast,190,2014-01-26 13:55:00
8:15 AM,23.5,12.2,62,29.50,10.0,SSW,21.9,28.8,N/A,,Overcast,200,2014-01-26 14:15:00
8:35 AM,24.8,12.9,61,29.50,10.0,SW,19.6,24.2,N/A,,Overcast,220,2014-01-26 14:35:00
8:55 AM,25.9,14.2,61,29.48,10.0,SSW,19.6,25.3,N/A,,Overcast,210,2014-01-26 14:55:00
9:15 AM,27.9,16.0,61,29.48,10.0,SSW,18.4,25.3,N/A,,Overcast,210,2014-01-26 15:15:00
9:35 AM,30.0,16.7,58,29.48,10.0,SW,21.9,27.6,N/A,,Overcast,220,2014-01-26 15:35:00
9:55 AM,32.0,18.3,57,29.48,10.0,SW,19.6,28.8,N/A,,Scattered Clouds,230,2014-01-26 15:55:00
10:15 AM,32.5,20.5,61,29.48,10.0,SW,17.3,28.8,N/A,,Mostly Cloudy,220,2014-01-26 16:15:00
10:35 AM,34.5,22.5,61,29.48,10.0,SW,20.7,25.3,N/A,,Overcast,230,2014-01-26 16:35:00
10:55 AM,36.1,25.5,65,29.49,10.0,WSW,24.2,27.6,N/A,,Overcast,240,2014-01-26 16:55:00
11:15 AM,36.5,26.6,67,29.49,10.0,WSW,19.6,26.5,N/A,,Overcast,250,2014-01-26 17:15:00
11:35 AM,36.1,27.0,69,29.50,10.0,WSW,17.3,25.3,N/A,,Overcast,240,2014-01-26 17:35:00
11:55 AM,36.9,28.2,71,29.50,10.0,WSW,19.6,25.3,N/A,,Overcast,250,2014-01-26 17:55:00
12:15 PM,37.4,29.1,72,29.50,10.0,WSW,17.3,-,N/A,,Overcast,250,2014-01-26 18:15:00
12:35 PM,38.7,30.2,72,29.48,10.0,West,16.1,23.0,N/A,,Overcast,260,2014-01-26 18:35:00
12:55 PM,38.7,30.6,73,29.49,10.0,WSW,13.8,-,N/A,,Overcast,250,2014-01-26 18:55:00
1:15 PM,39.2,31.1,73,29.49,10.0,WSW,18.4,21.9,N/A,,Scattered Clouds,250,2014-01-26 19:15:00
1:35 PM,38.8,30.9,73,29.49,10.0,West,18.4,27.6,N/A,,Mostly Cloudy,260,2014-01-26 19:35:00
1:55 PM,38.8,30.2,71,29.48,10.0,WSW,18.4,28.8,N/A,,Overcast,250,2014-01-26 19:55:00
2:15 PM,38.5,30.2,72,29.48,10.0,WSW,17.3,24.2,N/A,,Overcast,250,2014-01-26 20:15:00
2:35 PM,39.2,30.9,72,29.48,10.0,WSW,16.1,25.3,N/A,,Mostly Cloudy,250,2014-01-26 20:35:00
2:55 PM,40.5,30.7,68,29.49,10.0,WSW,19.6,31.1,N/A,,Scattered Clouds,250,2014-01-26 20:55:00
3:15 PM,40.6,30.9,68,29.50,10.0,WSW,18.4,32.2,N/A,,Clear,250,2014-01-26 21:15:00
3:35 PM,40.5,30.9,69,29.50,10.0,West,20.7,26.5,N/A,,Clear,260,2014-01-26 21:35:00
3:55 PM,40.1,31.1,70,29.51,10.0,West,11.5,-,N/A,,Scattered Clouds,260,2014-01-26 21:55:00
4:15 PM,39.2,31.5,74,29.52,10.0,West,11.5,-,N/A,,Scattered Clouds,260,2014-01-26 22:15:00
4:35 PM,39.0,31.6,75,29.52,10.0,WSW,11.5,-,N/A,,Clear,250,2014-01-26 22:35:00
4:55 PM,38.3,31.6,77,29.53,10.0,WSW,9.2,-,N/A,,Clear,250,2014-01-26 22:55:00
5:15 PM,37.8,31.8,79,29.53,10.0,SW,10.4,-,N/A,,Clear,230,2014-01-26 23:15:00
5:35 PM,37.9,31.6,78,29.53,10.0,SW,11.5,-,N/A,,Clear,230,2014-01-26 23:35:00
5:55 PM,38.3,31.1,75,29.53,10.0,SW,12.7,-,N/A,,Mostly Cloudy,230,2014-01-26 23:55:00
6:15 PM,37.9,30.2,74,29.52,10.0,SW,10.4,-,N/A,,Scattered Clouds,230,2014-01-27 00:15:00
6:35 PM,37.9,30.0,73,29.52,10.0,SW,12.7,-,N/A,,Clear,220,2014-01-27 00:35:00
6:55 PM,38.3,31.1,75,29.50,10.0,SW,12.7,-,N/A,,Mostly Cloudy,220,2014-01-27 00:55:00
7:15 PM,39.0,30.9,73,29.48,10.0,SW,16.1,21.9,N/A,,Mostly Cloudy,220,2014-01-27 01:15:00
7:35 PM,39.0,30.6,72,29.47,10.0,SW,17.3,-,N/A,,Scattered Clouds,220,2014-01-27 01:35:00
7:55 PM,40.1,30.2,68,29.48,10.0,SW,17.3,-,N/A,,Clear,220,2014-01-27 01:55:00
8:15 PM,40.3,30.2,67,29.47,10.0,SW,16.1,-,N/A,,Scattered Clouds,220,2014-01-27 02:15:00
8:35 PM,40.5,30.2,67,29.48,10.0,SW,17.3,-,N/A,,Mostly Cloudy,230,2014-01-27 02:35:00
8:55 PM,31.1,25.5,80,29.59,7.0,NW,31.1,64.4,N/A,Rain,Freezing Rain,320,2014-01-27 02:55:00
9:15 PM,29.3,23.7,80,29.62,10.0,NW,29.9,43.7,N/A,,Overcast,310,2014-01-27 03:15:00
9:35 PM,27.5,22.1,80,29.67,10.0,NW,29.9,38.0,N/A,,Overcast,320,2014-01-27 03:35:00
9:55 PM,23.0,18.1,82,29.70,7.0,NW,35.7,47.2,N/A,Rain,Freezing Rain,320,2014-01-27 03:55:00
10:15 PM,20.1,14.2,78,29.75,7.0,NW,34.5,43.7,N/A,Snow,Light Snow,320,2014-01-27 04:15:00
10:35 PM,18.5,4.3,54,29.77,10.0,NW,36.8,47.2,N/A,,Overcast,310,2014-01-27 04:35:00
10:55 PM,17.4,3.7,55,29.78,10.0,NW,34.5,49.5,N/A,,Overcast,310,2014-01-27 04:55:00
11:15 PM,17.1,2.3,52,29.80,10.0,WNW,29.9,43.7,N/A,,Overcast,290,2014-01-27 05:15:00
11:35 PM,15.3,1.4,54,29.82,10.0,NW,26.5,41.4,N/A,,Overcast,310,2014-01-27 05:35:00
11:55 PM,13.1,-2.7,49,29.85,10.0,WNW,35.7,50.6,N/A,,Overcast,300,2014-01-27 05:55:00